Location: Saluda
(35.2377°N, 82.3468°W)
Time: 16:13:00
(UTC+00:00)

Transit 2A - Pass Details

Date: 04 October 2022
Orbit: 598 x 959 km, 66.7° (Epoch: 06 December)

Event Time Altitude Azimuth Distance (km) Brightness Sun altitude
Rises 04:59:30 0° 247° (WSW) 2,920 - -58.8°
Reaches altitude 10° 05:02:37 10° 269° (W) 1,974 - -58.9°
Maximum altitude 05:05:19 16° 308° (NW) 1,603 - -59.0°
Drops below altitude 10° 05:08:00 10° 346° (NNW) 1,941 - -59.0°
Sets 05:11:02 0° 9° (N) 2,847 - -59.1°
